FW2970 Woods Hole MA US current weather conditions

sailwx.info

Wind from 119 at 3 knots gusting 7

Air temperature 21.7° C
Dewpoint 19.4° C

Last reported at 2020-Jul-04 21:01 UTC.
Time now 2020-Jul-04 21:43 UTC

Location: N 41°32' W 070°41'.
View on Google Maps.

See reports from other nearby stations

  
Tides and Currents Weather Stations Pressure Air Temp Water Temp Dewpoint Dewpoint Depression Visibility Wind Speed Wind Dir Waves Ship Positions
date/time (UTC)wind fromknots sea level pressurealtimeterstation pressurevisibilityair tempwater tempwave heightnotes
2020-Jul-04 21:01 119 3 gusting 7 21.7
2020-Jul-04 20:45 153 5 gusting 6 22.2
2020-Jul-04 20:32 181 4 gusting 6 21.7
2020-Jul-04 20:17 138 4 21.7
2020-Jul-04 20:01 162 1 gusting 6 22.8
2020-Jul-04 19:47 355 3 gusting 6 22.2
2020-Jul-04 19:31 342 4 gusting 6 21.7
2020-Jul-04 19:16 354 4 gusting 6 21.1
2020-Jul-04 19:01 333 5 gusting 6 21.1
2020-Jul-04 18:45 334 5 gusting 7 21.7
2020-Jul-04 18:31 354 6 gusting 8 21.1
2020-Jul-04 18:15 011 5 gusting 8 21.1
2020-Jul-04 18:00 347 4 gusting 8 20.6
2020-Jul-04 17:45 323 5 gusting 10 20.0
2020-Jul-04 17:31 010 6 gusting 9 20.0
2020-Jul-04 17:15 338 6 gusting 12 19.4
2020-Jul-04 17:00 323 7 gusting 13 19.4
2020-Jul-04 16:45 356 7 gusting 12 19.4
2020-Jul-04 16:30 355 8 gusting 13 19.4
2020-Jul-04 16:15 342 9 gusting 13 19.4
2020-Jul-04 16:00 345 9 gusting 13 19.4
2020-Jul-04 15:45 334 10 gusting 14 20.0
2020-Jul-04 15:30 010 10 gusting 15 19.4
2020-Jul-04 15:15 357 9 gusting 14 19.4
2020-Jul-04 15:00 330 8 gusting 13 20.0
2020-Jul-04 14:45 345 8 gusting 13 19.4
2020-Jul-04 14:30 351 8 gusting 13 19.4
2020-Jul-04 14:17 347 10 gusting 14 18.9
2020-Jul-04 14:03 342 9 gusting 14 18.9
2020-Jul-04 13:46 014 8 gusting 13 18.3
2020-Jul-04 13:33 333 8 gusting 15 18.3
2020-Jul-04 13:16 351 10 gusting 15 18.9
2020-Jul-04 13:01 006 9 gusting 14 18.9
2020-Jul-04 12:47 359 9 gusting 15 18.3
2020-Jul-04 12:31 338 10 gusting 14 18.3
2020-Jul-04 12:16 348 11 gusting 18 17.8
2020-Jul-04 12:00 060 13 gusting 18 17.8
2020-Jul-04 11:46 356 13 gusting 19 17.8
2020-Jul-04 11:31 008 13 gusting 19 17.8
2020-Jul-04 11:16 028 12 gusting 15 18.3
2020-Jul-04 11:03 340 10 gusting 16 18.3
2020-Jul-04 10:46 347 12 gusting 16 18.3
2020-Jul-04 10:31 008 9 gusting 15 18.3
2020-Jul-04 10:16 318 9 gusting 15 18.3
2020-Jul-04 10:01 328 9 gusting 14 18.3
2020-Jul-04 09:46 006 9 gusting 14 18.3
2020-Jul-04 09:31 347 9 gusting 14 18.3
2020-Jul-04 09:15 332 6 gusting 13 18.3
2020-Jul-04 09:01 037 9 gusting 13 18.3
2020-Jul-04 08:46 350 9 gusting 14 18.3
2020-Jul-04 08:30 359 8 gusting 14 18.3
2020-Jul-04 08:15 027 7 gusting 15 18.3
2020-Jul-04 08:01 019 9 gusting 13 18.3
2020-Jul-04 07:45 012 11 gusting 15 18.3
2020-Jul-04 07:31 331 11 gusting 15 18.3
2020-Jul-04 07:15 337 7 gusting 15 18.3
2020-Jul-04 07:00 345 12 gusting 17 18.3
2020-Jul-04 06:46 352 11 gusting 17 18.3
2020-Jul-04 06:30 338 11 gusting 18 18.3
2020-Jul-04 06:15 023 11 gusting 19 18.3
2020-Jul-04 06:01 356 9 gusting 19 18.3
2020-Jul-04 05:45 025 12 gusting 17 18.3
2020-Jul-04 05:30 356 13 gusting 19 18.3
2020-Jul-04 05:15 347 13 gusting 18 18.3
2020-Jul-04 05:00 347 13 gusting 19 18.3
2020-Jul-04 04:45 326 13 gusting 19 18.3
2020-Jul-04 04:30 347 11 gusting 17 18.3
2020-Jul-04 04:15 029 12 gusting 18 18.3
2020-Jul-04 04:00 011 8 gusting 18 18.3
2020-Jul-04 03:45 029 12 gusting 18 18.3
2020-Jul-04 03:30 023 11 gusting 19 18.3
2020-Jul-04 03:15 013 12 gusting 18 18.3
2020-Jul-04 03:00 027 8 gusting 14 18.3
2020-Jul-04 02:45 331 8 gusting 12 18.3
2020-Jul-04 02:30 004 6 gusting 13 18.3
2020-Jul-04 02:15 001 9 gusting 15 18.3
2020-Jul-04 02:01 008 9 gusting 16 18.3
2020-Jul-04 01:46 360 8 gusting 18 18.3
2020-Jul-04 01:32 354 9 gusting 18 18.3
2020-Jul-04 01:16 008 7 gusting 16 18.3
2020-Jul-04 01:01 011 10 gusting 18 18.3
2020-Jul-04 00:45 034 7 gusting 14 18.3
2020-Jul-04 00:32 342 6 gusting 12 18.3
2020-Jul-04 00:16 037 6 gusting 13 18.9
2020-Jul-04 00:01 022 6 gusting 13 18.9
2020-Jul-03 23:46 067 6 gusting 16 18.9
2020-Jul-03 23:30 036 10 gusting 17 18.9
2020-Jul-03 23:16 041 7 gusting 15 18.9
2020-Jul-03 23:02 322 10 gusting 16 18.9
2020-Jul-03 22:46 013 9 gusting 15 18.9
2020-Jul-03 22:31 036 8 gusting 15 18.9
2020-Jul-03 22:15 037 10 gusting 14 19.4
2020-Jul-03 22:01 004 8 gusting 15 18.9
2020-Jul-03 21:45 358 9 gusting 15 19.4
2020-Jul-03 21:30 002 9 gusting 13 19.4
2020-Jul-03 21:16 327 8 gusting 13 19.4
2020-Jul-03 21:00 205 5 gusting 13 19.4
2020-Jul-03 20:46 342 5 gusting 11 20.0
2020-Jul-03 20:30 350 6 gusting 13 19.4
2020-Jul-03 20:15 347 9 gusting 13 19.4
2020-Jul-03 20:00 348 8 gusting 16 19.4
2020-Jul-03 19:45 336 8 gusting 18 19.4
2020-Jul-03 19:30 348 6 gusting 15 20.0
2020-Jul-03 19:15 001 12 gusting 16 20.0
2020-Jul-03 19:00 357 6 gusting 13 20.6
2020-Jul-03 18:45 006 10 gusting 15 21.1
2020-Jul-03 18:30 353 10 gusting 16 21.1
2020-Jul-03 18:15 341 11 gusting 19 21.1
2020-Jul-03 18:00 354 13 gusting 18 20.6
2020-Jul-03 17:45 333 13 gusting 19 21.1
2020-Jul-03 17:30 347 13 gusting 20 21.1
2020-Jul-03 17:15 340 14 gusting 19 21.7
2020-Jul-03 17:00 008 12 gusting 17 21.7
2020-Jul-03 16:45 338 11 gusting 16 21.7
2020-Jul-03 16:30 354 9 gusting 17 21.7
2020-Jul-03 16:15 046 11 gusting 19 21.1
2020-Jul-03 16:00 355 13 gusting 18 20.6
2020-Jul-03 15:45 008 8 gusting 16 21.1
2020-Jul-03 15:30 012 9 gusting 14 21.1
2020-Jul-03 15:15 347 7 gusting 13 21.1
2020-Jul-03 15:00 330 8 gusting 13 21.1
2020-Jul-03 14:45 323 7 gusting 13 21.1
2020-Jul-03 14:30 034 8 gusting 19 21.1
2020-Jul-03 14:18 331 14 gusting 21 21.1
2020-Jul-03 14:02 004 13 gusting 21 22.2
2020-Jul-03 13:47 296 14 gusting 20 22.2
2020-Jul-03 13:31 352 15 gusting 22 22.8
2020-Jul-03 13:16 340 13 gusting 19 22.8
2020-Jul-03 13:01 330 11 gusting 17 23.3
2020-Jul-03 12:46 004 11 gusting 14 23.3
2020-Jul-03 12:31 009 7 gusting 10 23.3
2020-Jul-03 12:16 332 7 gusting 11 23.3
2020-Jul-03 12:01 346 8 gusting 11 22.8
2020-Jul-03 11:47 340 7 gusting 11 22.8
2020-Jul-03 11:30 349 6 gusting 7 22.8
2020-Jul-03 11:15 347 3 gusting 7 22.8
2020-Jul-03 11:00 013 4 gusting 6 22.8
2020-Jul-03 10:45 285 1 gusting 4 22.2
2020-Jul-03 10:30 181 21.7
2020-Jul-03 10:15 145 1 gusting 2 21.1
2020-Jul-03 10:00 153 21.1
2020-Jul-03 09:45 293 21.1
2020-Jul-03 09:30 266 1 gusting 4 21.1
2020-Jul-03 09:15 266 3 gusting 5 20.6
2020-Jul-03 09:00 284 1 gusting 3 20.6
2020-Jul-03 08:45 290 2 gusting 4 20.6
2020-Jul-03 08:30 228 0 gusting 2 20.6
2020-Jul-03 08:15 245 1 gusting 3 20.6
2020-Jul-03 08:00 199 2 gusting 4 20.6
2020-Jul-03 07:45 221 2 gusting 5 20.6
2020-Jul-03 07:30 218 2 gusting 4 20.6
2020-Jul-03 07:15 205 1 gusting 3 20.0
2020-Jul-03 07:00 243 3 gusting 6 20.0
2020-Jul-03 06:45 217 4 gusting 6 20.0
2020-Jul-03 06:31 200 3 gusting 6 20.0
2020-Jul-03 06:16 176 3 gusting 4 20.0
2020-Jul-03 06:01 215 3 gusting 5 20.0
2020-Jul-03 05:47 170 3 gusting 5 20.6
2020-Jul-03 05:31 176 2 gusting 5 20.6
2020-Jul-03 05:17 223 1 gusting 3 20.6
2020-Jul-03 05:01 201 1 gusting 4 20.6
2020-Jul-03 04:47 181 3 gusting 4 20.6
2020-Jul-03 04:31 195 1 gusting 4 20.6
2020-Jul-03 04:16 225 6 gusting 9 20.6
2020-Jul-03 04:01 228 7 gusting 10 20.6
2020-Jul-03 03:45 209 7 gusting 10 21.1
2020-Jul-03 03:31 229 7 gusting 13 21.7
2020-Jul-03 03:15 255 9 gusting 14 21.7
2020-Jul-03 03:00 256 6 gusting 11 21.7
2020-Jul-03 02:48 241 5 gusting 9 21.1
2020-Jul-03 02:30 219 6 gusting 8 20.6
2020-Jul-03 02:15 209 6 gusting 9 21.1
2020-Jul-03 02:00 217 6 gusting 8 20.6
2020-Jul-03 01:45 175 5 gusting 10 21.1
2020-Jul-03 01:31 238 6 gusting 9 21.7
2020-Jul-03 01:16 212 3 gusting 5 20.6
2020-Jul-03 01:01 179 4 gusting 6 20.6
2020-Jul-03 00:46 172 4 gusting 7 21.7
2020-Jul-03 00:31 238 7 gusting 11 22.2
2020-Jul-03 00:16 237 5 gusting 9 22.2
2020-Jul-03 00:01 227 5 gusting 8 21.7
2020-Jul-02 23:46 231 7 gusting 10 21.7
2020-Jul-02 23:30 220 8 gusting 12 21.7
2020-Jul-02 23:16 218 8 gusting 11 21.7
2020-Jul-02 23:01 218 9 gusting 12 21.7
2020-Jul-02 22:46 217 9 gusting 13 21.7
2020-Jul-02 22:30 218 8 gusting 12 22.2
2020-Jul-02 22:15 200 9 gusting 13 22.2
2020-Jul-02 22:00 222 9 gusting 12 22.2
2020-Jul-02 21:46 232 9 gusting 13 22.2
2020-Jul-02 21:31 211 10 gusting 13 22.2
2020-Jul-02 21:16 214 9 gusting 12 22.2
2020-Jul-02 21:01 220 7 gusting 10 22.2